User: anonymous   Login
Location: Albany
(35.0000°S, 118.0000°E)
Time: 15:10:38
(UTC-04:00)
Language:

Cosmos 1758 Rocket - Orbit

View from above orbital plane
View from above orbital plane
View from above satellite
View from above satellite

Ground track
Ground track

The orbit data is extracted from the following two-line orbital elements,

1 16792U 86046B   15084.82682559  .00000669  00000-0  79274-4 0  9996
2 16792 082.4809 248.5349 0025867 094.0729 026.7241 14.82853070554185
Epoch (UTC): 25 March 2015 19:50:37
Eccentricity: 0.0025867
inclination: 82.4809°
perigee height: 602 km
apogee height: 638 km
right ascension of ascending node: 248.5349°
argument of perigee: 94.0729°
revolutions per day: 14.82853070
mean anomaly at epoch: 26.7241°
orbit number at epoch: 55418

The dashed part of the orbit path shows where the satellite is in the earth's shadow,  

DLR